This demonstration page uses our WeatherBlox Daily Observations layout. Learn more.

Left ArrowRight Arrow

38.88101, -77.10428

Hourly Observations for July 5, 2021

Temp ( °F °C ) Dew Point ( °F °C ) Humidity (%) Winds ( mph kmh ) Pressure ( in mb ) Visibility ( mi km ) Precip ( " mm )
12:52 am 00:52 Mostly Clear 75 23.9 65 18.3 71 71 N N/A 29.98 1015 10 16 N/A
1:52 am 01:52 Mostly Clear 75 23.9 64 17.8 69 69 ESE 3 6 29.98 1015 9 14 N/A
2:52 am 02:52 Partly Cloudy 74 23.3 65 18.3 74 74 SE 3 6 29.98 1015 9 14 N/A
3:52 am 03:52 Mostly Cloudy 73 22.8 65 18.3 76 76 ENE 3 6 29.98 1015 9 14 N/A
4:52 am 04:52 Mostly Cloudy with Haze 72 22.2 66 18.9 82 82 NE 6 9 29.99 1016 5 8 N/A
5:52 am 05:52 Mostly Cloudy with Haze 71 21.7 66 18.9 84 84 ENE 3 6 30.00 1016 5 8 N/A
6:52 am 06:52 Mostly Cloudy with Haze 72 22.2 66 18.9 82 82 ENE 6 9 30.01 1016 6 10 N/A
7:52 am 07:52 Cloudy with Haze 75 23.9 67 19.4 76 76 NE 3 6 30.04 1017 6 10 N/A
8:52 am 08:52 Cloudy 77 25 66 18.9 69 69 ESE 3 6 30.05 1018 10 16 N/A
9:52 am 09:52 Cloudy 80 26.7 64 17.8 58 58 S 6 9 30.06 1018 10 16 N/A
10:52 am 10:52 Cloudy 82 27.8 66 18.9 58 58 S 5 7 30.06 1018 10 16 N/A
11:52 am 11:52 Mostly Cloudy 84 28.9 68 20 59 59 S 9 15 30.06 1018 10 16 N/A
12:52 pm 12:52 Mostly Cloudy 84 28.9 66 18.9 55 55 S 10 17 30.06 1018 10 16 N/A
1:52 pm 13:52 Mostly Cloudy 86 30 67 19.4 53 53 S 9 15 30.05 1018 10 16 N/A
2:52 pm 14:52 Mostly Cloudy 87 30.6 67 19.4 51 51 S 14 22 30.04 1017 10 16 N/A
3:52 pm 15:52 Mostly Cloudy 88 31.1 66 18.9 48 48 S 8 13 30.04 1017 10 16 N/A
4:52 pm 16:52 Mostly Cloudy 88 31.1 68 20 52 52 S 10 17 30.03 1017 10 16 N/A
5:52 pm 17:52 Mostly Cloudy 86 30 69 20.6 57 57 S 10 17 30.03 1017 10 16 N/A
6:52 pm 18:52 Mostly Cloudy 85 29.4 68 20 57 57 S 12 19 30.03 1017 10 16 N/A
7:52 pm 19:52 Partly Cloudy 84 28.9 68 20 59 59 S 10 17 30.03 1017 10 16 N/A
8:52 pm 20:52 Partly Cloudy 83 28.3 67 19.4 59 59 S 10 17 30.04 1017 10 16 N/A
9:52 pm 21:52 Partly Cloudy 80 26.7 68 20 67 67 S 8 13 30.05 1018 10 16 N/A
10:52 pm 22:52 Partly Cloudy 79 26.1 68 20 69 69 SSW 9 15 30.07 1018 10 16 N/A
11:52 pm 23:52 Mostly Cloudy 78 25.6 67 19.4 69 69 SSW 9 15 30.07 1018 10 16 N/A

Powered by AerisWeather